| time (UTC) | temp F | wind direction | speed knots | gust knots | rain 1hr in | rain 24hr in | rain mn in | humidity % | barometer mb |
| 20260904192235 | 84 | 232 | 5.2 | 13.9 | 0.00 | 0.00 | 0.00 | 23 | 1016.7 |
| 20260904191735 | 84 | 252 | 3.5 | 8.7 | 0.00 | 0.00 | 0.00 | 22 | 1016.7 |
| 20260904191235 | 84 | 227 | 1.7 | 7.8 | 0.00 | 0.00 | 0.00 | 21 | 1016.6 |
| 20260904190734 | 84 | 190 | 0.9 | 7.8 | 0.00 | 0.00 | 0.00 | 22 | 1016.8 |
| 20260904190235 | 83 | 244 | 3.5 | 7.8 | 0.00 | 0.00 | 0.00 | 21 | 1016.8 |
| 20260904185734 | 83 | 241 | 5.2 | 8.7 | 0.00 | 0.00 | 0.00 | 20 | 1016.8 |
| 20260904185234 | 84 | 290 | 2.6 | 9.6 | 0.00 | 0.00 | 0.00 | 19 | 1017.0 |
| 20260904184224 | 83 | 234 | 1.7 | 9.6 | 0.00 | 0.00 | 0.00 | 20 | 1016.8 |
| 20260904183734 | 83 | 238 | 5.2 | 8.7 | 0.00 | 0.00 | 0.00 | 21 | 1016.9 |
| 20260904183234 | 83 | 225 | 3.5 | 12.2 | 0.00 | 0.00 | 0.00 | 20 | 1016.9 |
| 20260904182734 | 82 | 232 | 4.3 | 12.2 | 0.00 | 0.00 | 0.00 | 21 | 1016.9 |
| 20260904182234 | 82 | 263 | 5.2 | 10.4 | 0.00 | 0.00 | 0.00 | 20 | 1017.0 |
| 20260904181734 | 82 | 234 | 2.6 | 10.4 | 0.00 | 0.00 | 0.00 | 20 | 1017.0 |
| 20260904181234 | 82 | 98 | 2.6 | 9.6 | 0.00 | 0.00 | 0.00 | 19 | 1017.0 |
| 20260904180734 | 81 | 193 | 0.0 | 9.6 | 0.00 | 0.00 | 0.00 | 18 | 1016.8 |
| 20260904180234 | 81 | 212 | 2.6 | 7.0 | 0.00 | 0.00 | 0.00 | 19 | 1016.7 |
| 20260904175734 | 81 | 9 | 0.0 | 8.7 | 0.00 | 0.00 | 0.00 | 18 | 1016.9 |
| 20260904175223 | 81 | 268 | 2.6 | 8.7 | 0.00 | 0.00 | 0.00 | 18 | 1017.0 |
| 20260904173733 | 79 | 235 | 0.9 | 9.6 | 0.00 | 0.00 | 0.00 | 18 | 1016.7 |
| 20260904173234 | 79 | 270 | 1.7 | 9.6 | 0.00 | 0.00 | 0.00 | 18 | 1016.7 |
| 20260904172734 | 79 | 241 | 8.7 | 9.6 | 0.00 | 0.00 | 0.00 | 17 | 1016.7 |
| 20260904172234 | 79 | 234 | 9.6 | 9.6 | 0.00 | 0.00 | 0.00 | 17 | 1016.7 |
| 20260904171734 | 79 | 229 | 5.2 | 9.6 | 0.00 | 0.00 | 0.00 | 16 | 1016.7 |
| 20260904171233 | 79 | 241 | 5.2 | 8.7 | 0.00 | 0.00 | 0.00 | 15 | 1016.6 |
| 20260904170733 | 79 | 257 | 4.3 | 8.7 | 0.00 | 0.00 | 0.00 | 15 | 1016.6 |
| 20260904170233 | 78 | 252 | 0.9 | 7.8 | 0.00 | 0.00 | 0.00 | 16 | 1016.7 |
| 20260904165733 | 78 | 240 | 7.0 | 7.8 | 0.00 | 0.00 | 0.00 | 16 | 1016.6 |
| 20260904164733 | 77 | 239 | 4.3 | 7.8 | 0.00 | 0.00 | 0.00 | 14 | 1016.3 |
| 20260904164233 | 77 | 255 | 2.6 | 7.8 | 0.00 | 0.00 | 0.00 | 12 | 1016.2 |
| 20260904163733 | 76 | 268 | 0.9 | 7.0 | 0.00 | 0.00 | 0.00 | 13 | 1016.1 |
| 20260904163233 | 76 | 232 | 4.3 | 7.0 | 0.00 | 0.00 | 0.00 | 12 | 1016.0 |
| 20260904162733 | 75 | 231 | 3.5 | 7.0 | 0.00 | 0.00 | 0.00 | 12 | 1015.7 |
| 20260904162233 | 75 | 268 | 0.9 | 7.0 | 0.00 | 0.00 | 0.00 | 10 | 1015.6 |
| 20260904161733 | 75 | 249 | 3.5 | 7.0 | 0.00 | 0.00 | 0.00 | 12 | 1015.5 |
| 20260904161233 | 74 | 246 | 1.7 | 6.1 | 0.00 | 0.00 | 0.00 | 10 | 1015.4 |
| 20260904160733 | 75 | 254 | 2.6 | 6.1 | 0.00 | 0.00 | 0.00 | 9 | 1015.3 |
| 20260904160232 | 75 | 227 | 3.5 | 6.1 | 0.00 | 0.00 | 0.00 | 10 | 1015.4 |
| 20260904155732 | 74 | 221 | 2.6 | 4.3 | 0.00 | 0.00 | 0.00 | 10 | 1015.2 |
| 20260904155233 | 74 | 221 | 0.9 | 4.3 | 0.00 | 0.00 | 0.00 | 9 | 1015.3 |
| 20260904154733 | 74 | 95 | 0.0 | 2.6 | 0.00 | 0.00 | 0.00 | 12 | 1015.2 |
| 20260904154232 | 74 | 74 | 1.7 | 1.7 | 0.00 | 0.00 | 0.00 | 13 | 1015.2 |
| 20260904153733 | 73 | 74 | 0.0 | 0.0 | 0.00 | 0.00 | 0.00 | 14 | 1015.3 |
| 20260904153232 | 72 | 74 | 0.0 | 0.0 | 0.00 | 0.00 | 0.00 | 14 | 1015.0 |
| 20260904152232 | 70 | 74 | 0.0 | 0.9 | 0.00 | 0.00 | 0.00 | 20 | 1014.9 |
| 20260904151732 | 69 | 74 | 0.0 | 1.7 | 0.00 | 0.00 | 0.00 | 23 | 1014.8 |
| 20260904151232 | 67 | 74 | 0.0 | 3.5 | 0.00 | 0.00 | 0.00 | 23 | 1014.4 |
| 20260904150732 | 65 | 74 | 0.9 | 6.1 | 0.00 | 0.00 | 0.00 | 21 | 1014.2 |
| 20260904150232 | 64 | 74 | 1.7 | 6.1 | 0.00 | 0.00 | 0.00 | 24 | 1013.9 |
| 20260904145732 | 62 | 67 | 2.6 | 4.3 | 0.00 | 0.00 | 0.00 | 26 | 1014.0 |
| 20260904144732 | 59 | 69 | 2.6 | 7.0 | 0.00 | 0.00 | 0.00 | 30 | 1013.8 |
| 20260904144231 | 57 | 92 | 5.2 | 6.1 | 0.00 | 0.00 | 0.00 | 32 | 1013.6 |
| 20260904143731 | 56 | 82 | 2.6 | 6.1 | 0.00 | 0.00 | 0.00 | 33 | 1013.4 |
| 20260904143231 | 54 | 82 | 1.7 | 6.1 | 0.00 | 0.00 | 0.00 | 36 | 1013.1 |
| 20260904142732 | 53 | 62 | 1.7 | 6.1 | 0.00 | 0.00 | 0.00 | 38 | 1013.1 |
| 20260904142232 | 52 | 76 | 2.6 | 6.1 | 0.00 | 0.00 | 0.00 | 39 | 1012.8 |
| 20260904141732 | 51 | 55 | 2.6 | 7.0 | 0.00 | 0.00 | 0.00 | 41 | 1012.8 |
| 20260904141234 | 50 | 80 | 1.7 | 7.0 | 0.00 | 0.00 | 0.00 | 42 | 1012.5 |
| 20260904140731 | 49 | 80 | 3.5 | 7.0 | 0.00 | 0.00 | 0.00 | 42 | 1012.5 |
| 20260904140231 | 49 | 64 | 1.7 | 6.1 | 0.00 | 0.00 | 0.00 | 40 | 1012.4 |
| 20260904135731 | 49 | 67 | 2.6 | 7.0 | 0.00 | 0.00 | 0.00 | 41 | 1013.2 |
| 20260904135231 | 48 | 78 | 3.5 | 7.0 | 0.00 | 0.00 | 0.00 | 42 | 1012.9 |
| 20260904134232 | 48 | 51 | 2.6 | 6.1 | 0.00 | 0.00 | 0.00 | 41 | 1013.0 |
| 20260904133731 | 48 | 65 | 2.6 | 6.1 | 0.00 | 0.00 | 0.00 | 41 | 1012.9 |
| 20260904132731 | 48 | 63 | 4.3 | 7.0 | 0.00 | 0.00 | 0.00 | 43 | 1012.8 |
| 20260904131231 | 48 | 76 | 3.5 | 8.7 | 0.00 | 0.00 | 0.00 | 47 | 1012.7 |
| 20260904130730 | 48 | 31 | 4.3 | 8.7 | 0.00 | 0.00 | 0.00 | 47 | 1012.7 |
| 20260904130231 | 48 | 66 | 5.2 | 7.8 | 0.00 | 0.00 | 0.00 | 48 | 1012.5 |
| 20260904125730 | 48 | 69 | 3.5 | 7.8 | 0.00 | 0.00 | 0.00 | 48 | 1013.2 |
| 20260904125230 | 48 | 71 | 5.2 | 7.8 | 0.00 | 0.00 | 0.00 | 48 | 1013.2 |
| 20260904124730 | 49 | 59 | 4.3 | 7.8 | 0.00 | 0.00 | 0.00 | 48 | 1013.4 |
| 20260904124230 | 49 | 36 | 4.3 | 7.8 | 0.00 | 0.00 | 0.00 | 49 | 1013.3 |
| 20260904123730 | 49 | 51 | 4.3 | 7.0 | 0.00 | 0.00 | 0.00 | 49 | 1013.4 |
| 20260904123230 | 49 | 53 | 3.5 | 7.0 | 0.00 | 0.00 | 0.00 | 49 | 1013.2 |
| 20260904122230 | 49 | 80 | 6.1 | 7.8 | 0.00 | 0.00 | 0.00 | 48 | 1013.3 |
| 20260904121730 | 49 | 78 | 7.0 | 7.8 | 0.00 | 0.00 | 0.00 | 49 | 1013.3 |
| 20260904120730 | 50 | 59 | 5.2 | 7.8 | 0.00 | 0.00 | 0.00 | 49 | 1013.4 |
| 20260904120230 | 50 | 75 | 3.5 | 7.8 | 0.00 | 0.00 | 0.00 | 49 | 1013.4 |
| 20260904115730 | 49 | 79 | 6.1 | 7.8 | 0.00 | 0.00 | 0.00 | 50 | 1013.9 |
| 20260904114729 | 50 | 59 | 6.1 | 7.8 | 0.00 | 0.00 | 0.00 | 50 | 1014.3 |
| 20260904114230 | 50 | 65 | 5.2 | 7.8 | 0.00 | 0.00 | 0.00 | 50 | 1014.2 |
| 20260904113730 | 50 | 54 | 3.5 | 7.0 | 0.00 | 0.00 | 0.00 | 50 | 1014.3 |
| 20260904113229 | 50 | 53 | 4.3 | 7.0 | 0.00 | 0.00 | 0.00 | 50 | 1014.4 |
| 20260904112730 | 50 | 69 | 4.3 | 7.8 | 0.00 | 0.00 | 0.00 | 50 | 1014.3 |
| 20260904112230 | 50 | 47 | 4.3 | 7.8 | 0.00 | 0.00 | 0.00 | 50 | 1014.3 |
| 20260904111730 | 50 | 53 | 2.6 | 7.0 | 0.00 | 0.00 | 0.00 | 49 | 1014.3 |
| 20260904111229 | 50 | 67 | 4.3 | 7.8 | 0.00 | 0.00 | 0.00 | 49 | 1014.4 |
| 20260904110259 | 50 | 68 | 5.2 | 7.8 | 0.00 | 0.00 | 0.00 | 48 | 1014.4 |
| 20260904105729 | 50 | 67 | 2.6 | 7.8 | 0.00 | 0.00 | 0.00 | 48 | 1014.7 |
| 20260904105229 | 50 | 75 | 6.1 | 7.8 | 0.00 | 0.00 | 0.00 | 47 | 1014.8 |
| 20260904104729 | 50 | 64 | 4.3 | 7.8 | 0.00 | 0.00 | 0.00 | 47 | 1014.7 |
| 20260904104229 | 50 | 58 | 4.3 | 7.0 | 0.00 | 0.00 | 0.00 | 46 | 1014.8 |
| 20260904103729 | 50 | 69 | 3.5 | 7.0 | 0.00 | 0.00 | 0.00 | 46 | 1014.7 |
| 20260904103229 | 50 | 59 | 3.5 | 7.0 | 0.00 | 0.00 | 0.00 | 45 | 1014.7 |
| 20260904102229 | 51 | 80 | 6.1 | 7.8 | 0.00 | 0.00 | 0.00 | 44 | 1014.7 |
| 20260904101729 | 51 | 66 | 7.0 | 7.8 | 0.00 | 0.00 | 0.00 | 43 | 1014.9 |
| 20260904101229 | 51 | 53 | 5.2 | 7.8 | 0.00 | 0.00 | 0.00 | 43 | 1014.8 |
| 20260904100729 | 51 | 51 | 3.5 | 7.8 | 0.00 | 0.00 | 0.00 | 43 | 1014.7 |
| 20260904100228 | 51 | 40 | 3.5 | 6.1 | 0.00 | 0.00 | 0.00 | 43 | 1014.6 |
| 20260904095728 | 50 | 81 | 3.5 | 7.0 | 0.00 | 0.00 | 0.00 | 43 | 1014.9 |
| 20260904095228 | 51 | 39 | 3.5 | 7.0 | 0.00 | 0.00 | 0.00 | 43 | 1014.8 |
| 20260904094758 | 51 | 44 | 4.3 | 7.0 | 0.00 | 0.00 | 0.00 | 41 | 1015.0 |
| 20260904094258 | 51 | 69 | 4.3 | 7.0 | 0.00 | 0.00 | 0.00 | 41 | 1014.9 |
| 20260904093758 | 51 | 65 | 2.6 | 7.0 | 0.00 | 0.00 | 0.00 | 40 | 1015.0 |
| 20260904093258 | 51 | 57 | 1.7 | 7.0 | 0.00 | 0.00 | 0.00 | 39 | 1014.9 |
| 20260904092758 | 51 | 74 | 3.5 | 7.0 | 0.00 | 0.00 | 0.00 | 38 | 1014.8 |
| 20260904092258 | 52 | 77 | 2.6 | 7.8 | 0.00 | 0.00 | 0.00 | 36 | 1015.0 |
| 20260904091729 | 52 | 57 | 4.3 | 7.8 | 0.00 | 0.00 | 0.00 | 35 | 1015.1 |
| 20260904091227 | 52 | 69 | 4.3 | 7.0 | 0.00 | 0.00 | 0.00 | 34 | 1015.0 |
| 20260904090728 | 52 | 48 | 4.3 | 7.0 | 0.00 | 0.00 | 0.00 | 34 | 1015.1 |
| 20260904090258 | 52 | 57 | 3.5 | 6.1 | 0.00 | 0.00 | 0.00 | 34 | 1015.0 |
| 20260904085728 | 52 | 57 | 3.5 | 6.1 | 0.00 | 0.00 | 0.00 | 34 | 1015.3 |
| 20260904085228 | 52 | 58 | 2.6 | 7.0 | 0.00 | 0.00 | 0.00 | 34 | 1015.5 |
| 20260904084727 | 51 | 44 | 4.3 | 7.0 | 0.00 | 0.00 | 0.00 | 34 | 1015.5 |
| 20260904084228 | 51 | 57 | 2.6 | 7.0 | 0.00 | 0.00 | 0.00 | 34 | 1015.5 |
| 20260904083758 | 51 | 60 | 3.5 | 6.1 | 0.00 | 0.00 | 0.00 | 33 | 1015.7 |
| 20260904082727 | 51 | 65 | 2.6 | 6.1 | 0.00 | 0.00 | 0.00 | 34 | 1015.7 |
| 20260904082257 | 51 | 44 | 4.3 | 6.1 | 0.00 | 0.00 | 0.00 | 33 | 1015.8 |
| 20260904080727 | 51 | 50 | 5.2 | 7.0 | 0.00 | 0.00 | 0.00 | 30 | 1015.6 |
| 20260904080257 | 51 | 57 | 3.5 | 7.0 | 0.00 | 0.00 | 0.00 | 29 | 1015.8 |
| 20260904075727 | 51 | 39 | 3.5 | 7.0 | 0.00 | 0.00 | 0.00 | 28 | 1015.7 |
| 20260904074727 | 51 | 69 | 3.5 | 7.0 | 0.00 | 0.00 | 0.00 | 28 | 1015.8 |
| 20260904074257 | 52 | 71 | 2.6 | 7.0 | 0.00 | 0.00 | 0.00 | 28 | 1015.9 |
| 20260904073727 | 52 | 51 | 2.6 | 7.0 | 0.00 | 0.00 | 0.00 | 28 | 1015.9 |
| 20260904072726 | 52 | 34 | 2.6 | 7.0 | 0.00 | 0.00 | 0.00 | 29 | 1015.8 |
| 20260904072226 | 52 | 72 | 3.5 | 7.0 | 0.00 | 0.00 | 0.00 | 29 | 1015.8 |
| 20260904071227 | 52 | 68 | 3.5 | 7.0 | 0.00 | 0.00 | 0.00 | 31 | 1015.9 |
| 20260904070256 | 53 | 68 | 1.7 | 7.0 | 0.00 | 0.00 | 0.00 | 32 | 1016.2 |
| 20260904065756 | 53 | 68 | 3.5 | 7.0 | 0.00 | 0.00 | 0.00 | 31 | 1015.6 |
| 20260904065256 | 53 | 50 | 3.5 | 7.0 | 0.00 | 0.00 | 0.00 | 31 | 1015.5 |
| 20260904064756 | 53 | 77 | 4.3 | 7.0 | 0.00 | 0.00 | 0.00 | 31 | 1015.6 |
| 20260904063756 | 53 | 55 | 4.3 | 7.0 | 0.00 | 0.00 | 0.00 | 31 | 1015.6 |
| 20260904063256 | 53 | 61 | 4.3 | 7.0 | 0.00 | 0.00 | 0.00 | 32 | 1015.6 |
| 20260904062756 | 53 | 69 | 5.2 | 5.2 | 0.00 | 0.00 | 0.00 | 33 | 1015.4 |
| 20260904062256 | 53 | 46 | 3.5 | 5.2 | 0.00 | 0.00 | 0.00 | 34 | 1015.4 |
| 20260904061756 | 53 | 64 | 4.3 | 6.1 | 0.00 | 0.00 | 0.00 | 34 | 1015.4 |
| 20260904060755 | 54 | 58 | 1.7 | 6.1 | 0.00 | 0.00 | 0.00 | 35 | 1015.6 |
| 20260904060245 | 54 | 67 | 3.5 | 6.1 | 0.00 | 0.00 | 0.00 | 35 | 1015.6 |
| 20260904055756 | 54 | 74 | 2.6 | 7.0 | 0.00 | 0.00 | 0.00 | 37 | 1015.5 |
| 20260904055255 | 54 | 71 | 2.6 | 7.0 | 0.00 | 0.00 | 0.00 | 37 | 1015.6 |
| 20260904054755 | 54 | 69 | 4.3 | 6.1 | 0.00 | 0.00 | 0.00 | 37 | 1015.7 |
| 20260904054256 | 54 | 68 | 4.3 | 6.1 | 0.00 | 0.00 | 0.00 | 40 | 1015.7 |
| 20260904053755 | 54 | 88 | 2.6 | 7.0 | 0.00 | 0.00 | 0.00 | 41 | 1015.6 |
| 20260904053245 | 54 | 82 | 6.1 | 7.0 | 0.00 | 0.00 | 0.00 | 42 | 1015.5 |
| 20260904051755 | 54 | 67 | 4.3 | 6.1 | 0.00 | 0.00 | 0.00 | 45 | 1015.7 |
| 20260904051255 | 54 | 68 | 2.6 | 6.1 | 0.00 | 0.00 | 0.00 | 47 | 1015.7 |
| 20260904050755 | 54 | 61 | 2.6 | 6.1 | 0.00 | 0.00 | 0.00 | 49 | 1015.7 |
| 20260904050244 | 55 | 81 | 6.1 | 6.1 | 0.00 | 0.00 | 0.00 | 52 | 1015.7 |
| 20260904045755 | 55 | 65 | 3.5 | 7.0 | 0.00 | 0.00 | 0.00 | 54 | 1015.5 |
| 20260904045255 | 55 | 80 | 4.3 | 7.0 | 0.00 | 0.00 | 0.00 | 55 | 1015.5 |
| 20260904044755 | 54 | 72 | 4.3 | 6.1 | 0.00 | 0.00 | 0.00 | 57 | 1015.2 |
| 20260904044255 | 54 | 71 | 2.6 | 6.1 | 0.00 | 0.00 | 0.00 | 57 | 1015.1 |
| 20260904043755 | 54 | 80 | 4.3 | 6.1 | 0.00 | 0.00 | 0.00 | 59 | 1015.1 |
| 20260904043255 | 54 | 80 | 0.0 | 4.3 | 0.00 | 0.00 | 0.00 | 59 | 1015.1 |
| 20260904042755 | 55 | 87 | 0.9 | 4.3 | 0.00 | 0.00 | 0.00 | 59 | 1015.4 |
| 20260904042254 | 55 | 76 | 2.6 | 4.3 | 0.00 | 0.00 | 0.00 | 58 | 1015.4 |
| 20260904041755 | 55 | 71 | 2.6 | 6.1 | 0.00 | 0.00 | 0.00 | 58 | 1015.4 |
| 20260904041254 | 55 | 63 | 2.6 | 7.8 | 0.00 | 0.00 | 0.00 | 60 | 1015.4 |
| 20260904040754 | 55 | 72 | 3.5 | 7.8 | 0.00 | 0.00 | 0.00 | 58 | 1015.4 |
| 20260904040255 | 55 | 61 | 4.3 | 6.1 | 0.00 | 0.00 | 0.00 | 59 | 1015.5 |
| 20260904035755 | 55 | 69 | 4.3 | 7.0 | 0.00 | 0.00 | 0.00 | 64 | 1015.1 |
| 20260904035254 | 56 | 82 | 4.3 | 7.0 | 0.00 | 0.00 | 0.00 | 64 | 1015.2 |
| 20260904034754 | 56 | 78 | 2.6 | 7.0 | 0.00 | 0.00 | 0.00 | 65 | 1015.2 |
| 20260904034254 | 56 | 50 | 2.6 | 7.0 | 0.00 | 0.00 | 0.00 | 67 | 1015.2 |
| 20260904033754 | 56 | 91 | 5.2 | 5.2 | 0.00 | 0.00 | 0.00 | 70 | 1015.2 |
| 20260904032754 | 57 | 80 | 1.7 | 4.3 | 0.00 | 0.00 | 0.00 | 71 | 1015.2 |
| 20260904032254 | 57 | 73 | 2.6 | 4.3 | 0.00 | 0.00 | 0.00 | 71 | 1015.2 |
| 20260904031754 | 57 | 72 | 2.6 | 4.3 | 0.00 | 0.00 | 0.00 | 71 | 1015.2 |
| 20260904030754 | 58 | 75 | 1.7 | 4.3 | 0.00 | 0.00 | 0.00 | 70 | 1015.3 |
| 20260904030254 | 59 | 67 | 3.5 | 4.3 | 0.00 | 0.00 | 0.00 | 69 | 1015.4 |
| 20260904025754 | 59 | 77 | 2.6 | 3.5 | 0.00 | 0.00 | 0.00 | 68 | 1014.2 |
| 20260904025254 | 60 | 219 | 1.7 | 3.5 | 0.00 | 0.00 | 0.00 | 67 | 1014.1 |
| 20260904024754 | 61 | 231 | 1.7 | 2.6 | 0.00 | 0.00 | 0.00 | 67 | 1014.5 |
| 20260904024253 | 61 | 233 | 0.0 | 1.7 | 0.00 | 0.00 | 0.00 | 65 | 1014.4 |
| 20260904023753 | 62 | 233 | 0.9 | 1.7 | 0.00 | 0.00 | 0.00 | 64 | 1014.2 |
| 20260904022753 | 63 | 233 | 0.0 | 0.0 | 0.00 | 0.00 | 0.00 | 64 | 1014.3 |
| 20260904022254 | 64 | 233 | 0.0 | 0.9 | 0.00 | 0.00 | 0.00 | 63 | 1014.3 |
| 20260904021753 | 64 | 233 | 0.0 | 1.7 | 0.00 | 0.00 | 0.00 | 64 | 1014.3 |
| 20260904021253 | 65 | 233 | 0.0 | 1.7 | 0.00 | 0.00 | 0.00 | 64 | 1014.6 |
| 20260904020753 | 65 | 233 | 0.0 | 1.7 | 0.00 | 0.00 | 0.00 | 63 | 1014.7 |
| 20260904020253 | 65 | 233 | 0.0 | 3.5 | 0.00 | 0.00 | 0.00 | 63 | 1014.6 |
| 20260904015753 | 66 | 234 | 0.0 | 3.5 | 0.00 | 0.00 | 0.00 | 62 | 1012.8 |
| 20260904015254 | 66 | 235 | 0.0 | 5.2 | 0.00 | 0.00 | 0.00 | 61 | 1012.9 |
| 20260904012753 | 69 | 234 | 1.7 | 6.1 | 0.00 | 0.00 | 0.00 | 58 | 1013.1 |
| 20260904012252 | 69 | 247 | 0.9 | 7.8 | 0.00 | 0.00 | 0.00 | 57 | 1013.2 |
| 20260904011752 | 69 | 242 | 4.3 | 7.8 | 0.00 | 0.00 | 0.00 | 57 | 1013.1 |
| 20260904011252 | 70 | 228 | 4.3 | 8.7 | 0.00 | 0.00 | 0.00 | 56 | 1013.4 |
| 20260904010753 | 71 | 226 | 6.1 | 8.7 | 0.00 | 0.00 | 0.00 | 55 | 1013.5 |
| 20260904010252 | 71 | 252 | 3.5 | 7.8 | 0.00 | 0.00 | 0.00 | 53 | 1013.4 |
| 20260904005752 | 72 | 261 | 1.7 | 10.4 | 0.00 | 0.00 | 0.00 | 53 | 1013.4 |
| 20260904004252 | 73 | 225 | 7.0 | 7.8 | 0.00 | 0.00 | 0.00 | 50 | 1013.7 |
| 20260904003752 | 74 | 245 | 7.8 | 8.7 | 0.00 | 0.00 | 0.00 | 49 | 1013.6 |
| 20260904002752 | 74 | 263 | 6.1 | 9.6 | 0.00 | 0.00 | 0.00 | 48 | 1013.5 |
| 20260904002252 | 75 | 244 | 1.7 | 7.8 | 0.00 | 0.00 | 0.00 | 47 | 1013.8 |
| 20260904001752 | 75 | 247 | 0.9 | 8.7 | 0.00 | 0.00 | 0.00 | 47 | 1013.8 |
| 20260904001252 | 75 | 238 | 1.7 | 8.7 | 0.00 | 0.00 | 0.00 | 46 | 1013.8 |
| 20260904000751 | 76 | 261 | 5.2 | 10.4 | 0.00 | 0.00 | 0.00 | 45 | 1013.8 |
| 20260904000252 | 77 | 243 | 5.2 | 10.4 | 0.00 | 0.00 | 0.00 | 44 | 1014.0 |
| 20260903235741 | 77 | 241 | 1.7 | 10.4 | 0.00 | 0.00 | 0.00 | 43 | 1014.0 |
| 20260903234751 | 79 | 234 | 9.6 | 10.4 | 0.00 | 0.00 | 0.00 | 41 | 1014.3 |
| 20260903234251 | 79 | 253 | 6.1 | 8.7 | 0.00 | 0.00 | 0.00 | 41 | 1014.1 |
| 20260903233751 | 79 | 236 | 1.7 | 9.6 | 0.00 | 0.00 | 0.00 | 41 | 1014.3 |
| 20260903233252 | 79 | 211 | 5.2 | 11.3 | 0.00 | 0.00 | 0.00 | 41 | 1014.3 |
| 20260903232751 | 80 | 223 | 7.0 | 11.3 | 0.00 | 0.00 | 0.00 | 40 | 1014.6 |
| 20260903232251 | 80 | 234 | 4.3 | 8.7 | 0.00 | 0.00 | 0.00 | 41 | 1014.6 |
| 20260903231751 | 79 | 226 | 2.6 | 8.7 | 0.00 | 0.00 | 0.00 | 41 | 1014.5 |
| 20260903231251 | 79 | 263 | 1.7 | 11.3 | 0.00 | 0.00 | 0.00 | 42 | 1014.5 |
| 20260903230751 | 79 | 244 | 4.3 | 11.3 | 0.00 | 0.00 | 0.00 | 41 | 1014.5 |
| 20260903230251 | 80 | 240 | 9.6 | 10.4 | 0.00 | 0.00 | 0.00 | 40 | 1014.7 |
| 20260903225751 | 80 | 239 | 7.8 | 10.4 | 0.00 | 0.00 | 0.00 | 40 | 1014.8 |
| 20260903225251 | 80 | 248 | 6.1 | 10.4 | 0.00 | 0.00 | 0.00 | 39 | 1014.9 |
| 20260903224751 | 81 | 242 | 10.4 | 13.0 | 0.00 | 0.00 | 0.00 | 38 | 1015.0 |
| 20260903224250 | 80 | 252 | 2.6 | 13.0 | 0.00 | 0.00 | 0.00 | 39 | 1015.0 |
| 20260903223751 | 80 | 195 | 1.7 | 13.0 | 0.00 | 0.00 | 0.00 | 39 | 1015.0 |
| 20260903223251 | 81 | 252 | 8.7 | 13.0 | 0.00 | 0.00 | 0.00 | 37 | 1015.0 |
| 20260903222750 | 82 | 244 | 6.1 | 12.2 | 0.00 | 0.00 | 0.00 | 37 | 1015.4 |
| 20260903222250 | 82 | 242 | 3.5 | 12.2 | 0.00 | 0.00 | 0.00 | 37 | 1015.5 |
| 20260903221751 | 82 | 252 | 0.9 | 12.2 | 0.00 | 0.00 | 0.00 | 37 | 1015.6 |
| 20260903220750 | 81 | 233 | 3.5 | 10.4 | 0.00 | 0.00 | 0.00 | 37 | 1015.3 |
| 20260903220250 | 82 | 243 | 7.8 | 9.6 | 0.00 | 0.00 | 0.00 | 35 | 1015.5 |
| 20260903215750 | 83 | 243 | 4.3 | 13.0 | 0.00 | 0.00 | 0.00 | 33 | 1015.6 |
| 20260903215250 | 83 | 213 | 1.7 | 13.0 | 0.00 | 0.00 | 0.00 | 34 | 1015.7 |
| 20260903214750 | 84 | 232 | 12.2 | 13.0 | 0.00 | 0.00 | 0.00 | 32 | 1015.6 |
| 20260903214250 | 84 | 236 | 0.9 | 11.3 | 0.00 | 0.00 | 0.00 | 30 | 1015.6 |
| 20260903213750 | 84 | 196 | 3.5 | 13.9 | 0.00 | 0.00 | 0.00 | 28 | 1015.6 |
| 20260903213239 | 84 | 227 | 8.7 | 13.9 | 0.00 | 0.00 | 0.00 | 26 | 1015.7 |
| 20260903212749 | 85 | 215 | 2.6 | 11.3 | 0.00 | 0.00 | 0.00 | 25 | 1015.8 |
| 20260903212250 | 84 | 220 | 2.6 | 13.0 | 0.00 | 0.00 | 0.00 | 23 | 1015.6 |
| 20260903211750 | 84 | 232 | 3.5 | 13.0 | 0.00 | 0.00 | 0.00 | 22 | 1015.6 |
| 20260903211249 | 85 | 240 | 10.4 | 13.0 | 0.00 | 0.00 | 0.00 | 21 | 1015.9 |
| 20260903210249 | 85 | 251 | 8.7 | 12.2 | 0.00 | 0.00 | 0.00 | 21 | 1015.8 |
| 20260903205750 | 84 | 273 | 2.6 | 10.4 | 0.00 | 0.00 | 0.00 | 22 | 1015.8 |
| 20260903204249 | 84 | 253 | 0.0 | 13.0 | 0.00 | 0.00 | 0.00 | 21 | 1015.8 |
| 20260903203750 | 85 | 220 | 2.6 | 12.2 | 0.00 | 0.00 | 0.00 | 20 | 1016.0 |
| 20260903203249 | 85 | 254 | 7.8 | 12.2 | 0.00 | 0.00 | 0.00 | 20 | 1016.1 |
| 20260903202749 | 86 | 236 | 2.6 | 11.3 | 0.00 | 0.00 | 0.00 | 20 | 1015.9 |
| 20260903202249 | 85 | 238 | 4.3 | 13.0 | 0.00 | 0.00 | 0.00 | 20 | 1016.0 |
| 20260903201738 | 84 | 223 | 2.6 | 13.0 | 0.00 | 0.00 | 0.00 | 20 | 1016.0 |
| 20260903201249 | 84 | 171 | 4.3 | 8.7 | 0.00 | 0.00 | 0.00 | 17 | 1015.9 |
| 20260903200749 | 85 | 228 | 2.6 | 10.4 | 0.00 | 0.00 | 0.00 | 17 | 1016.2 |
| 20260903200249 | 85 | 240 | 7.8 | 11.3 | 0.00 | 0.00 | 0.00 | 18 | 1016.2 |
| 20260903195749 | 84 | 205 | 3.5 | 11.3 | 0.00 | 0.00 | 0.00 | 18 | 1016.3 |
| 20260903195249 | 84 | 246 | 7.0 | 9.6 | 0.00 | 0.00 | 0.00 | 17 | 1016.4 |
| 20260903194738 | 84 | 202 | 0.9 | 9.6 | 0.00 | 0.00 | 0.00 | 18 | 1016.5 |
| 20260903194248 | 83 | 253 | 3.5 | 11.3 | 0.00 | 0.00 | 0.00 | 18 | 1016.3 |
| 20260903193749 | 83 | 185 | 3.5 | 11.3 | 0.00 | 0.00 | 0.00 | 20 | 1016.4 |
| 20260903193248 | 83 | 225 | 1.7 | 10.4 | 0.00 | 0.00 | 0.00 | 20 | 1016.5 |
| 20260903192748 | 83 | 250 | 7.0 | 10.4 | 0.00 | 0.00 | 0.00 | 22 | 1016.5 |